Regional Weather Roundup
Issued by NWS

Home | Current Version | Previous Version | Text Only | Print | Product List | Glossary Off
Versions: 1 2 3 4 5 6 7 8 9 10 11 12 13 14 15 16 17 18 19 20 21 22 23 24 25 26 27 28

000
ASUS45 KSLC 272210
RWRUT

UTAH REGIONAL WEATHER ROUNDUP
NATIONAL WEATHER SERVICE SALT LAKE CITY UT
400 PM MDT MON MAR 27 2017

UTZ001>011-023>025-272300-

NORTHERN UTAH

CITY           SKY/WX    TMP DP  RH WIND       PRES   REMARKS
BRIGHAM CITY     N/A     46  37  71 N6        29.87F
DUGWAY         LGT RAIN  45  41  86 N5        29.86R
HILL AFB       LGT RAIN  42  39  91 N7        29.86S
LOGAN          CLOUDY    43  38  82 CALM      29.89S
OGDEN          LGT RAIN  42  40  92 N9        29.85S
SALT LAKE CITY LGT RAIN  43  40  89 SW5       29.86S
TOOELE VALLEY  DRIZZLE   43  41  93 NW6       29.87S
WENDOVER       CLOUDY    51  31  46 N10       29.90R
HEBER CITY     LGT SNOW  36  34  93 CALM      29.83R
WEST JORDAN    CLOUDY    43  43 100 CALM      29.87S

$$

UTZ011>015-024>027-272300-

CENTRAL/NORTHEAST UTAH

CITY           SKY/WX    TMP DP  RH WIND       PRES   REMARKS
PROVO AIRPORT  LGT RAIN  41  37  87 SW3       29.87S
MOAB/CANYONLAN MOSUNNY   62  31  31 SW7       29.72F
DELTA          CLOUDY    39  37  93 E3        29.86S
PRICE          LGT RAIN  41  39  93 NW3       29.80F
ROOSEVELT      MIX PCPN  43  37  81 N6        29.86F
VERNAL         LGT RAIN  43  38  82 S3        29.83F

$$

UTZ013>016-019>022-027-272300-

SOUTHERN UTAH

CITY           SKY/WX    TMP DP  RH WIND       PRES   REMARKS
BRYCE CANYON   PTSUNNY   45  29  53 S12G21    29.81F
CEDAR CITY     LGT RAIN  37  34  89 NW10      29.87R WCI  30
MILFORD        LGT SNOW  34  32  92 N13       29.87R VSB 1   WCI  25
HANKSVILLE     PTSUNNY   64  28  25 SE16      29.71F
BLANDING       CLOUDY    53  33  47 NW7       29.89F

$$

REGIONAL REPORTS     COLORADO/ARIZONA

CITY           SKY/WX    TMP DP  RH WIND       PRES   REMARKS
CRAIG, CO      LGT RAIN  49  32  52 S9        29.83R
GRAND JUNCTION CLOUDY    60  28  29 NW9       29.76F
RIFLE, CO      CLOUDY    58  28  32 S13       29.79F
MONTROSE, CO   CLOUDY    57  27  31 W17G25    29.81F
CORTEZ, CO     CLOUDY    59  28  30 SW17G25   29.84F
COLORADO CITY    N/A     59  36  41 W20G28    29.83S
PAGE, AZ       CLOUDY    64  35  34 W7        29.71F
GRAND CANYON   PTSUNNY   54  22  28 SW17G35   29.84F
KINGMAN, AZ    PTSUNNY   68  16  13 SW18G25   29.83F
FLAGSTAFF, AZ  PTSUNNY   50  32  50 S20G25    29.88F

$$

REGIONAL REPORTS    NEVADA/IDAHO/WYOMING

CITY           SKY/WX    TMP DP  RH WIND       PRES   REMARKS
LAS VEGAS, NV  PTSUNNY   65  39  38 SE7       29.79S
ELY, NY        CLOUDY    42  27  55 N14       29.90S
ELKO, NV       CLOUDY    49  28  44 N10G17    29.98R
POCATELLO, ID  CLOUDY    46  38  73 SW13      29.92F
BURLEY, ID     LGT RAIN  49  31  49 W21G30    29.92S
EVANSTON, WY   FOG       33  30  88 N17       29.84S VSB 1/4 WCI  22
ROCK SPRINGS,  RAIN      38  33  82 CALM      29.85R
KEMMERER, WY     N/A     39  30  70 E9        29.84F WCI  33

$$




USA.gov is the U.S. government's official web portal to all federal, state and local government web resources and services.